New Orleans, LA Weather Center

Moon Phase Calendar



Online Cameras

 


      

Current Conditions in New Orleans
9/26/2022 10:17:27 AM

86°F
Feels Like 94
Clear
Humidity
69%
Pressure
29.94"
Wind
9.2 mph (NNW)
Dew Point
74°F
UV Index
3/10 (Moderate)
Visibility
6 mi

Hourly Forecast

Date & Time Mon, Sep 26
10:00 AM
Mon, Sep 26
11:00 AM
Mon, Sep 26
12:00 PM
Mon, Sep 26
1:00 PM
Mon, Sep 26
2:00 PM
Mon, Sep 26
3:00 PM
Mon, Sep 26
4:00 PM
Mon, Sep 26
5:00 PM
Mon, Sep 26
6:00 PM
Mon, Sep 26
7:00 PM
Mon, Sep 26
8:00 PM
Mon, Sep 26
9:00 PM
Mon, Sep 26
10:00 PM
Mon, Sep 26
11:00 PM
Tue, Sep 27
12:00 AM
Tue, Sep 27
1:00 AM
Tue, Sep 27
2:00 AM
Tue, Sep 27
3:00 AM
Tue, Sep 27
4:00 AM
Tue, Sep 27
5:00 AM
Tue, Sep 27
6:00 AM
Tue, Sep 27
7:00 AM
Tue, Sep 27
8:00 AM
Tue, Sep 27
9:00 AM
Tue, Sep 27
10:00 AM
Tue, Sep 27
11:00 AM
Tue, Sep 27
12:00 PM
Tue, Sep 27
1:00 PM
Tue, Sep 27
2:00 PM
Tue, Sep 27
3:00 PM
Tue, Sep 27
4:00 PM
Tue, Sep 27
5:00 PM
Tue, Sep 27
6:00 PM
Tue, Sep 27
7:00 PM
Tue, Sep 27
8:00 PM
Tue, Sep 27
9:00 PM
Tue, Sep 27
10:00 PM
Tue, Sep 27
11:00 PM
Wed, Sep 28
12:00 AM
Wed, Sep 28
1:00 AM
Wed, Sep 28
2:00 AM
Wed, Sep 28
3:00 AM
Wed, Sep 28
4:00 AM
Wed, Sep 28
5:00 AM
Wed, Sep 28
6:00 AM
Wed, Sep 28
7:00 AM
Wed, Sep 28
8:00 AM
Wed, Sep 28
9:00 AM
Condition
Clear

Clouds

Clouds

Clouds

Clouds

Clouds

Clouds

Clouds

Clouds

Clouds

Clouds

Clear

Clear

Clear

Clouds

Clouds

Clouds

Clouds

Clouds

Clouds

Clouds

Clouds

Clear

Clear

Clear

Clear

Clear

Clear

Clear

Clear

Clear

Clear

Clear

Clear

Clear

Clear

Clear

Clear

Clear

Clear

Clear

Clear

Clear

Clear

Clear

Clear

Clear

Clear
Temperature 86°F86°F86°F87°F88°F89°F89°F89°F87°F84°F82°F80°F78°F77°F77°F76°F75°F73°F72°F71°F70°F69°F69°F72°F75°F78°F80°F82°F83°F83°F83°F82°F80°F77°F76°F74°F73°F72°F72°F71°F69°F69°F68°F68°F67°F66°F67°F69°F
Feels Like 94°F93°F93°F93°F92°F92°F92°F93°F91°F86°F84°F81°F78°F77°F76°F75°F74°F73°F71°F70°F69°F68°F68°F71°F74°F77°F79°F80°F81°F81°F81°F80°F80°F76°F74°F73°F72°F71°F70°F69°F68°F68°F67°F66°F66°F65°F65°F68°F
Cloudiness 0%17%34%52%75%77%79%83%75%68%12%9%8%9%19%28%51%32%21%16%13%11%0%0%0%0%0%0%0%0%0%0%0%0%0%0%0%0%0%0%1%1%8%7%5%5%0%0%
Visibility 6 mi6 mi6 mi6 mi6 mi6 mi6 mi6 mi6 mi6 mi6 mi6 mi6 mi6 mi6 mi6 mi6 mi6 mi6 mi6 mi6 mi6 mi6 mi6 mi6 mi6 mi6 mi6 mi6 mi6 mi6 mi6 mi6 mi6 mi6 mi6 mi6 mi6 mi6 mi6 mi6 mi6 mi6 mi6 mi6 mi6 mi6 mi6 mi
Precipitation 2%0%0%0%8%3%0%1%4%9%26%27%23%19%19%19%0%0%0%0%0%0%0%0%0%0%0%0%0%0%0%0%0%0%0%0%0%0%0%0%0%0%0%0%0%0%0%0%
Humidity 69%67%64%60%55%50%48%50%53%53%54%52%51%50%47%48%50%49%47%48%48%48%47%42%37%31%26%23%22%23%23%25%29%33%35%38%41%41%42%43%45%45%45%46%47%48%47%43%
Dew Point 74°F73°F72°F71°F70°F67°F67°F68°F68°F65°F64°F61°F59°F57°F55°F55°F55°F53°F51°F50°F49°F48°F49°F48°F46°F45°F42°F41°F41°F41°F42°F43°F45°F45°F46°F47°F48°F47°F47°F47°F47°F47°F46°F46°F46°F46°F46°F46°F
Pressure 29.94"29.94"29.94"29.91"29.91"29.88"29.85"29.85"29.85"29.88"29.91"29.94"29.97"29.97"29.97"29.97"29.97"29.97"29.97"29.97"29.97"30"30"30.03"30.06"30.06"30.03"30.03"30"29.97"29.97"29.97"29.97"30"30.03"30.03"30.06"30.06"30.06"30.06"30.06"30.03"30.06"30.06"30.06"30.09"30.12"30.12"
Wind Speed 6.4 mph6.3 mph7.2 mph7.1 mph6.6 mph5.8 mph5.6 mph7.1 mph12.2 mph13.1 mph13.1 mph13.6 mph14.2 mph12.8 mph12.8 mph13 mph12.1 mph12.7 mph11.6 mph12.4 mph12.8 mph12.6 mph14.1 mph14.6 mph14.5 mph14.4 mph14.5 mph14.3 mph14.1 mph15 mph15.4 mph15.3 mph15.9 mph16.6 mph16.1 mph14.5 mph14.7 mph15.4 mph16.3 mph16.3 mph15.8 mph16.2 mph16.1 mph15.6 mph16.8 mph16.1 mph16.3 mph17.1 mph
Wind
Direction
349°
N
348°
NNW
344°
NNW
342°
NNW
339°
NNW
327°
NNW
315°
NW
329°
NNW
358°
N
12°
NNE
17°
NNE
11°
N
14°
NNE
20°
NNE
25°
NNE
32°
NNE
37°
NE
37°
NE
42°
NE
42°
NE
44°
NE
45°
NE
39°
NE
42°
NE
41°
NE
35°
NE
32°
NNE
30°
NNE
27°
NNE
24°
NNE
25°
NNE
27°
NNE
26°
NNE
25°
NNE
27°
NNE
30°
NNE
38°
NE
40°
NE
41°
NE
46°
NE
45°
NE
41°
NE
43°
NE
41°
NE
39°
NE
40°
NE
37°
NE
38°
NE

Daily Forecast

Date High Low Precip. Humidity
Today
Sep 26

Rain
89 °F
77 °F
50%
64%
Tuesday
Sep 27

Clear
83 °F
69 °F
19%
26%
Wednesday
Sep 28

Clear
81 °F
66 °F
0%
29%
Thursday
Sep 29

Clear
81 °F
61 °F
0%
31%
Friday
Sep 30

Clear
85 °F
66 °F
0%
47%
Saturday
Oct 1

Clear
86 °F
69 °F
0%
48%
Sunday
Oct 2

Clear
87 °F
70 °F
0%
29%
Monday
Oct 3

Clear
87 °F
69 °F
0%
33%
Tuesday
Oct 4

Clear
86 °F
70 °F
0%
36%
Wednesday
Oct 5

Clear
87 °F
71 °F
0%
39%
Thursday
Oct 6

Rain
85 °F
68 °F
99%
47%
Friday
Oct 7

Rain
82 °F
68 °F
77%
59%
Saturday
Oct 8

Rain
85 °F
71 °F
24%
42%
Sunday
Oct 9

Clear
85 °F
71 °F
0%
45%
Monday
Oct 10

Clear
84 °F
72 °F
11%
48%
Tuesday
Oct 11

Rain
84 °F
71 °F
37%
47%

Temperature 8-14 Day Outlook



Precipitation 8-14 Day Outlook




Quick Links
New Orleans, LA News
New Orleans, LA Photos
New Orleans, LA Videos




About Us
Contact Us
Site Map
Search Site
Advertise With Us
   
NewOrleans.CoastalTown.com
THE NEW ORLEANS, LA WEBSITE

Copyright 2022, Coastal Town
Privacy    |    Legal